Regional Weather Roundup
Issued by NWS

Home | Current Version | Previous Version | Text Only | Print | Product List | Glossary Off
Versions: 1 2 3 4 5 6 7 8 9 10 11 12 13 14 15 16 17 18 19 20 21 22 23 24 25 26 27 28 29 30 31 32 33 34 35 36 37 38 39 40 41 42 43 44 45 46 47 48 49 50

000
ASUS43 KTOP 282308
RWRKS

WEATHER ROUNDUP FOR KANSAS
NATIONAL WEATHER SERVICE GOODLAND KS
600 PM CDT SAT MAR 28 2015

NOTE:  "FAIR" INDICATES FEW OR NO CLOUDS BELOW 12,000 FEET WITH NO
SIGNIFICANT WEATHER AND/OR OBSTRUCTIONS TO VISIBILITY.

KSZ001>006-013>018-027>032-041>047-290000-
NORTHWEST KANSAS

CITY           SKY/WX    TMP DP  RH WIND       PRES   REMARKS
GOODLAND       SUNNY     80  20  10 SW14      29.88F
HAYS           SUNNY     72  39  30 SE18      29.94F
HILL CITY      SUNNY     76  37  24 SE14      29.91F
RUSSELL        SUNNY     71  39  31 SE15      29.93F
$$

KSZ061>065-074>080-084>089-290000-
SOUTHWEST KANSAS

CITY           SKY/WX    TMP DP  RH WIND       PRES   REMARKS
DODGE CITY     SUNNY     79  35  20 SE10      29.93F
ELKHART          N/A     82  31  15 S7          N/A
GARDEN CITY    SUNNY     79  29  16 S8        29.91F
GREAT BEND     SUNNY     72  39  30 SE15      29.95S
LIBERAL        SUNNY     82  34  17 SE5       29.94F
PRATT          SUNNY     72  37  28 SE13G18   29.97S
$$

KSZ066>073-081>083-090>101-290000-
SOUTHEAST KANSAS

CITY           SKY/WX    TMP DP  RH WIND       PRES   REMARKS
CHANUTE        SUNNY     61  41  47 SE10      30.06S
COFFEYVILLE    SUNNY     66  41  40 SE9       30.03S
HUTCHINSON     SUNNY     72  39  30 SE12      29.96F
MEDICINE LODGE   N/A     75  41  29 E13G18    29.94F
NEWTON         SUNNY     66  37  34 E13       30.01F
PARSONS        SUNNY     65  43  44 VRB6      30.05S
WICHITA INTL   SUNNY     72  38  29 E13       29.97S
WICHITA JABRA  SUNNY     69  38  32 E14       29.99S
WICHITA MCCONL SUNNY     71  40  32 E12       29.98S
WINFIELD       SUNNY     72  41  32 E10       29.99S
$$

KSZ007>012-019>026-033>040-048>060-102>105-290000-
NORTHEAST KANSAS

CITY           SKY/WX    TMP DP  RH WIND       PRES   REMARKS
CONCORDIA      SUNNY     64  35  34 SE16      29.98F
EMPORIA        SUNNY     60  37  42 SE16G22   30.04S
LAWRENCE       SUNNY     54  32  43 SE15      30.10F
MANHATTAN      SUNNY     62  35  36 S15       30.02S
MARYSVILLE     SUNNY     59  34  38 SE14      30.02F
OLATHE IND     SUNNY     51  32  48 E12       30.12S
OLATHE EXE     SUNNY     51  31  46 SE13G20   30.11S
SALINA         SUNNY     68  37  32 SE16      29.98F
TOPEKA BILLARD SUNNY     55  33  43 E15       30.08F
TOPEKA FORBES  SUNNY     57  34  41 SE15G21   30.07S
$$


USA.gov is the U.S. government's official web portal to all federal, state and local government web resources and services.